THOR ABLESTAR DEB, 325

Orbit data source: Space-Track

THOR ABLESTAR DEB, 325 is space debris in LEO originally from a launch on Thu, 29 Jun 1961 UTC launched from the Air Force Eastern Test Range (AFETR). Debris objects in space refer to the collection of defunct objects orbiting the Earth. Examples of debris include non-operational satellites, rocket bodies, and fragments generated from explosions, collisions, or faulty payload assembly.

Loading next visibility...
Identifier
325, 1961-015DB
Orbit
LEO
Country
Flag of USUS
Related business
Manufacturer
Unknown
Mission
Spacecraft
Bus & Motor
Unknown
Mass
Unknown
Launch date (UTC)
1961-06-29 (65 years ago)
Launch vehicle
Unknown
Launch site
Air Force Eastern Test Range (AFETR)
Object type
Payload
Rocket body
Debris
Shape & HBR
Unknown shape, 0.1 m
Radar Cross Section
Medium (>0.1 m² and <1 m²)

Expand to show TLE details & history
Last TLE update: 21 hours ago

TLE from 21 hours ago
0 THOR ABLESTAR DEB
1 00325U 61015DB  26235.53876344  .00000511  00000-0  25757-3 0  9997
2 00325  66.9139 290.9521 0058087 332.3084  27.4922 14.23224368342746
Epoch: 2026-08-23T12:55Z
TLE epoch observation values (Epoch: 2026-08-23T12:55:49.161Z)
Latitude
0.00001°
Longitude
125.16389°
Altitude
779.572 km
Speed
7.484 km/s
True Right ascension
19h 23m 48s
True Declination
0° 00' 00"
Sunlit
Object was in full shadow at epoch
Visualization orbit readout
Latitude
Unknown
Longitude
Unknown
Altitude
Unknown
Speed
Unknown
Apparent Right ascension
Unknown
Apparent Declination
Unknown
Sunlit
N/A
Visualization observer readout
Local Sidereal Time
00:45:37
Azimuth
Unknown
Elevation
Unknown
Doppler factor
Unknown
Orbital elements
Apogee altitude
854.594 km
Perigee altitude
771.054 km
Semi-major axis
7,190.961 km
Eccentricity
0.00581
Inclination
66.9139°
RAAN
290.9521°
Arg. of periapsis
332.3084°
True anomaly
27.80146°
Mean anomaly
27.4922°
Eccentric anomaly
27.64663°
Mean motion
3.55929 °/min
Orbital period
101.14 mins
BSTAR
0.00025757
Loading maneuver chart data...
Computing Atmospheric mass density...
Loading historical data...
Loading historical data...
Loading historical data...
Loading historical data...
Loading historical data...
Loading historical data...
Loading historical data...

Documentation

Showing up to 5 results
|